Elmira, NY

7:22 AM EST on November 17, 2019 (GMT -0500)
Elmira-Corning Regional

Weather History for KELM - May, 2019

Change the Weather History Date:

Thursday, May 23, 2019

  Actual Average Record
Temperature  
Mean Temperature 65 °F -  
Max Temperature 82 °F 72 °F 92 °F (1930)
Min Temperature 48 °F 44 °F 28 °F (1967)
Growing Degree Days 15 (Base 50)    
Moisture  
Dew Point 55 °F    
Average Humidity 79    
Maximum Humidity 100    
Minimum Humidity 40    
Precipitation  
Precipitation 0.15 in - - ()
Sea Level Pressure  
Sea Level Pressure 30.00 in    
Wind  
Wind Speed 3 mph (WSW)    
Max Wind Speed 16 mph    
Max Gust Speed 30 mph    
Visibility 7 miles    
Events Fog , Rain , Thunderstorm    
Averages and records for this station are not official NWS values.
T = Trace of Precipitation, MM = Missing Value Source: NWS Daily Summary

Daily Weather History Graph

Daily Weather History Graph

Search for Another Location

Airport or City:

Astronomy

May. 23, 2019 Rise Set
Actual Time 5:39 AM EDT 8:29 PM EDT
Civil Twilight 5:06 AM EDT 9:02 PM EDT
Nautical Twilight 4:25 AM EDT 9:44 PM EDT
Astronomical Twilight 3:37 AM EDT 10:32 PM EDT
Moon 12:11 AM EDT (5/23) 9:40 AM EDT (5/23)
Length of Visible Light 15h 55m
Length of Day
14h 49m
Waning Gibbous, 77% of the Moon is Illuminated
May 23
Waning Gibbous
May 26
Last Quarter
Jun 3
New
Jun 10
First Quarter
Jun 17
Full

Hourly Weather History & Observations

Time (EDT) Temp. Heat Index Dew Point Humidity Pressure Visibility Wind Dir Wind Speed Gust Speed Precip Events Conditions
12:53 AM 55.9 °F - 53.1 °F 90% 30.14 in 10.0 mi WSW 3.5 mph - 0.05 in Thunderstorm Overcast
1:09 AM 57.0 °F - 52.0 °F 83% 30.14 in 10.0 mi WSW 4.6 mph - 0.00 in Rain Light Rain
1:53 AM 57.0 °F - 53.1 °F 87% 30.12 in 10.0 mi Calm Calm - 0.00 in   Mostly Cloudy
2:53 AM 53.1 °F - 51.1 °F 93% 30.11 in 10.0 mi Calm Calm - N/A   Clear
3:05 AM 53.1 °F - 51.1 °F 93% 30.11 in 1.8 mi Calm Calm - N/A   Clear
3:44 AM 50.0 °F - 50.0 °F 100% 30.10 in 1.0 mi Calm Calm - N/A   Mist
3:48 AM 50.0 °F - 48.2 °F 94% 30.10 in 0.5 mi Calm Calm - N/A Fog Fog
3:53 AM 50.0 °F - 48.0 °F 93% 30.10 in 0.2 mi Calm Calm - N/A Fog Fog
3:58 AM 50.0 °F - 48.0 °F 93% 30.10 in 0.5 mi Calm Calm - N/A Fog Fog
4:19 AM 51.1 °F - 48.9 °F 92% 30.10 in 0.2 mi Calm Calm - N/A Fog Fog
4:26 AM 51.1 °F - 50.0 °F 96% 30.10 in 0.2 mi Calm Calm - N/A Fog Fog
4:53 AM 48.9 °F - 48.0 °F 97% 30.09 in 0.2 mi Calm Calm - N/A Fog Fog
5:53 AM 48.0 °F - 46.9 °F 96% 30.09 in 0.2 mi Calm Calm - N/A Fog Fog
6:46 AM 50.0 °F - 50.0 °F 100% 30.09 in 0.8 mi Calm Calm - N/A   Mist
6:53 AM 51.1 °F - 50.0 °F 96% 30.09 in 2.5 mi Calm Calm - N/A   Scattered Clouds
7:00 AM 52.0 °F - 51.1 °F 97% 30.09 in 9.0 mi Calm Calm - N/A   Partly Cloudy
7:53 AM 55.0 °F - 53.1 °F 93% 30.08 in 10.0 mi Calm Calm - N/A   Mostly Cloudy
8:53 AM 60.1 °F - 54.0 °F 80% 30.06 in 10.0 mi Calm Calm - N/A   Mostly Cloudy
9:53 AM 63.0 °F - 55.9 °F 78% 30.04 in 10.0 mi Calm Calm - N/A   Mostly Cloudy
10:53 AM 68.0 °F - 59.0 °F 73% 30.01 in 10.0 mi Calm Calm - N/A   Partly Cloudy
11:53 AM 71.1 °F - 61.0 °F 70% 29.99 in 10.0 mi East 3.5 mph - N/A   Clear
12:37 PM 68.0 °F - 63.0 °F 84% 30.02 in 1.8 mi West 10.4 mph - 0.07 in Rain Heavy Rain
12:47 PM 69.8 °F - 62.6 °F 78% 29.99 in 3.0 mi SW 4.6 mph - 0.09 in Rain Light Rain
12:53 PM 69.1 °F - 64.0 °F 84% 29.98 in 9.0 mi SW 3.5 mph - 0.09 in Rain Light Rain
1:53 PM 73.0 °F - 64.9 °F 76% 29.94 in 10.0 mi SW 5.8 mph - 0.00 in   Partly Cloudy
2:53 PM 75.0 °F - 66.0 °F 73% 29.89 in 10.0 mi SSE 8.1 mph - N/A   Partly Cloudy
3:53 PM 75.9 °F - 64.9 °F 69% 29.86 in 9.0 mi SW 9.2 mph - 0.01 in Rain Light Rain
4:53 PM 78.1 °F - 64.9 °F 64% 29.82 in 10.0 mi SW 11.5 mph - 0.00 in   Overcast
5:53 PM 82.0 °F 83.0 °F 62.1 °F 51% 29.79 in 10.0 mi West 11.5 mph - N/A   Partly Cloudy
6:53 PM 80.1 °F 80.2 °F 55.9 °F 43% 29.79 in 10.0 mi NW 16.1 mph 21.9 mph N/A   Partly Cloudy
7:53 PM 78.1 °F - 52.0 °F 40% 29.80 in 10.0 mi West 16.1 mph 29.9 mph N/A   Clear
8:53 PM 75.0 °F - 51.1 °F 43% 29.83 in 10.0 mi WNW 11.5 mph 20.7 mph N/A   Partly Cloudy
9:53 PM 73.0 °F - 52.0 °F 48% 29.85 in 10.0 mi West 10.4 mph - N/A   Scattered Clouds
10:53 PM 71.1 °F - 52.0 °F 51% 29.85 in 10.0 mi West 11.5 mph 20.7 mph N/A   Clear
11:53 PM 69.1 °F - 50.0 °F 51% 29.87 in 10.0 mi WNW 10.4 mph 24.2 mph N/A   Clear